Hourly Data Report for September 01, 2010

PETERBOROUGH AWOS
ONTARIO

44°14'00.000" N
78°22'00.000" W
191.40 m
6166420

Download Data

Hourly Data (September 2010)
Hourly Data Report for September 1, 2010
TIME
LST
Temp Definition
°C
Dew Point Definition
°C
Rel Hum Definition
%
Precip. Amount Definition
mm

Wind Dir Definition
10's deg

Wind Spd Definition
km/h
Visibility Definition
km
Stn Press Definition
kPa
Hmdx Definition


Wind Chill Definition


Weather Definition


00:00 19.2 19.0 99   LegendMM LegendMM 2.3 99.42      
01:00 19.1 18.9 99   LegendMM LegendMM 2.9 99.39      
02:00 17.9 17.8 99   LegendMM LegendMM 4.8 99.35      
03:00 18.0 17.7 98   LegendMM LegendMM 6.4 99.34      
04:00 16.8 16.8 100   LegendMM LegendMM 0.5 99.34      
05:00 17.7 17.6 99   LegendMM LegendMM 3.4 99.35      
06:00 17.0 17.0 100   LegendMM LegendMM 3.4 99.36      
07:00 20.2 19.9 98   LegendMM LegendMM 4.0 99.35 28    
08:00 24.8 21.1 80   LegendMM LegendMM 9.7 99.33 33    
09:00 27.3 21.6 71   LegendMM LegendMM 11.3 99.31 36    
10:00 29.2 21.4 63   LegendMM LegendMM 15.0 99.26 38    
11:00 29.9 21.0 59   LegendMM LegendMM 15.0 99.23 38    
12:00 30.4 21.5 59   LegendMM LegendMM 15.0 99.18 39    
13:00 30.2 21.4 59   LegendMM LegendMM 15.0 99.14 39    
14:00 30.0 20.4 56   LegendMM LegendMM 15.0 99.09 38    
15:00 29.7 20.0 56   LegendMM LegendMM 15.0 99.05 37    
16:00 28.9 18.9 55   LegendMM LegendMM 15.0 99.03 36    
17:00 28.2 19.7 60   LegendMM LegendMM 15.0 99.00 36    
18:00 26.8 19.3 64   LegendMM LegendMM 15.0 98.97 34    
19:00 25.9 18.5 64   LegendMM LegendMM 15.0 98.98 32    
20:00 25.1 18.5 67   LegendMM LegendMM 15.0 98.99 31    
21:00 25.0 18.3 66   LegendMM LegendMM 15.0 99.03 31    
22:00 24.2 18.3 70   LegendMM LegendMM 15.0 99.02 30    
23:00 21.2 19.1 88   LegendMM LegendMM 15.0 99.03 28    

Notes on Data Quality.

Legend

  • E = Estimated
  • M = Missing
  • NA = Not Available*
  • [empty] = Indicates an unobserved value
Date modified: